Tracking 29892 objects as of 21-Nov-2024
HD Live streaming from Space Station
objects crossing your sky now

SL-12 DEB

Track SL-12 DEB now!
10-day predictions


NORAD ID: 25807
Int'l Code: 1987-079S
Perigee: 408.8 km
Apogee: 16,512.0 km
Inclination: 65.1 °
Period: 299.6 minutes
Semi major axis: 14831 km
RCS: 0.0426 m2 (small)
Launch date: September 16, 1987
Source: Commonwealth of Independent States (former USSR) (CIS)
Launch site: TYURATAM MISSILE AND SPACE COMPLEX (TTMTR)

Note: This is SATELLITE DEBRIS
Your satellite tracking list
Your tracking list is empty




NASA's NSSDC Master Catalog

Two Line Element Set (TLE):
1 25807U 87079S   24314.32980364  .00007710  00000-0  58962-2 0  9999
2 25807  65.1150 218.1582 5428777 322.9809   9.7366  4.80651238442325
Source of the keplerian elements: AFSPC